Cloud_Cover
5 40 68 35 35 0 5 31 74 18 39 100 100 77 31 0 0 6 16 7 18 28 96 100 96 94 100 100 100 100 97 100 100 100 100 100 100 100 100 100 100 100 100
30 100 100 100 0 3 13 6 100 100 57 100 36 7 0 50 3 19 49 95 54 58 100 100 100 100 100 100 100 100 100 56 21 94 100 100 100 100 100 100 100 100 100
100 100 100 87 5 7 5 11 100 100 6 0 1 0 0 10 100 93 67 75 98 94 57 60 90 84 66 100 100 100 42 85 86 92 100 100 100 100 100 100 100 100 100
100 100 100 71 47 62 5 24 20 50 5 0 0 0 0 8 68 40 74 59 70 9 2 14 29 67 100 52 44 87 46 81 79 98 100 100 100 100 100 100 100 100 100
100 100 100 100 100 58 8 38 44 5 6 25 0 0 0 12 54 2 66 90 59 15 0 0 0 2 28 11 21 29 18 35 59 98 100 100 100 100 100 100 100 100 100
100 100 54 100 100 100 17 56 61 17 90 6 2 0 3 16 99 88 76 100 100 36 0 0 0 0 0 1 17 14 3 0 4 57 100 100 100 100 100 100 100 100 100
100 99 52 20 100 93 90 93 95 22 100 14 4 5 4 2 51 96 9 0 21 82 13 1 0 0 0 0 0 0 4 8 12 93 24 63 93 100 97 90 90 72 84
100 84 90 35 98 96 100 100 100 100 99 87 8 5 5 5 3 1 0 1 0 0 21 0 2 5 5 31 18 7 0 0 0 0 3 16 35 21 11 10 5 5 15
100 100 96 78 85 100 100 100 100 98 100 100 98 32 62 80 11 7 2 4 5 5 49 46 44 22 22 49 34 7 5 5 5 2 0 3 5 5 4 58 16 30 13
100 99 100 100 100 86 100 100 93 98 89 100 100 31 5 69 71 11 3 5 5 45 8 16 5 5 5 5 7 5 5 5 5 2 1 2 5 3 0 4 0 1 32
100 100 84 86 100 100 99 100 100 100 100 100 100 100 100 65 87 20 30 9 77 68 5 11 16 33 6 19 5 5 5 4 0 0 0 0 11 0 0 0 0 0 0
100 100 100 100 100 100 100 100 100 100 100 100 100 100 100 82 97 99 100 100 48 97 82 51 80 98 100 58 27 17 35 5 0 0 0 0 0 0 0 0 0 0 2
100 100 100 98 98 100 100 100 100 100 100 100 100 100 100 98 100 100 100 100 100 100 100 96 100 60 100 100 89 98 43 4 0 0 0 0 0 0 0 0 5 4 5
100 100 100 100 100 100 99 100 100 100 100 100 100 100 100 100 100 100 85 99 79 90 96 75 81 8 55 33 99 14 9 0 0 0 0 0 0 0 5 8 8 77 75
100 100 100 100 100 100 100 100 100 100 100 100 97 90 100 100 100 95 77 100 100 100 98 89 26 1 0 2 3 0 0 0 0 0 0 0 5 24 28 93 97 100 100
76 100 100 100 100 100 100 100 100 100 100 100 100 97 100 99 100 100 100 100 100 98 100 15 1 0 1 1 1 5 5 3 3 5 5 5 91 100 100 100 100 100 100
83 95 100 77 83 79 96 100 57 77 81 100 98 100 100 100 100 100 100 47 99 28 1 5 3 5 5 5 4 3 5 69 98 99 100 100 98 100 100 100 100 100 100
65 33 79 83 67 56 39 42 9 5 24 15 4 1 0 0 0 0 0 0 0 4 5 5 5 5 5 5 5 5 5 5 23 86 93 98 100 100 100 100 100 100 100
11 43 48 77 90 8 35 42 100 26 5 4 5 5 1 0 0 0 0 0 0 0 0 2 5 5 5 5 5 5 5 5 5 66 83 97 100 100 100 100 100 100 100
5 5 5 12 5 14 26 42 44 72 46 5 5 4 1 0 0 0 0 0 0 0 0 0 0 0 0 1 5 5 5 5 74 69 88 73 100 99 100 100 100 100 100
5 5 60 100 66 68 55 5 5 5 22 67 36 0 0 0 0 0 0 0 0 0 0 2 0 0 3 5 5 5 5 5 11 100 100 97 99 100 94 99 100 100 100
57 59 98 100 99 60 40 21 36 55 64 5 5 5 5 5 4 0 0 1 0 4 5 5 5 5 5 5 15 33 30 35 12 85 100 100 100 100 100 100 100 100 100
98 99 94 75 90 88 43 97 44 88 100 62 80 59 34 5 5 5 5 6 60 89 31 26 5 5 5 5 5 7 78 94 97 100 100 100 100 100 99 100 100 100 100
100 100 100 99 100 100 99 100 100 22 6 8 33 38 37 40 32 75 48 78 95 100 100 100 99 100 83 50 7 5 6 5 10 10 16 62 100 100 100 100 100 100 100
97 100 100 100 100 100 100 99 81 98 74 72 71 95 88 47 11 31 5 50 71 5 33 28 59 9 7 64 35 93 99 100 38 63 6 40 7 7 31 55 57 85 94
100 100 98 100 100 100 100 95 97 66 50 73 12 55 41 6 16 7 5 5 17 5 9 40 56 41 44 99 66 3 10 46 80 100 98 100 100 57 37 59 56 49 4